QPF
0.00 0.00 0.00 0.00 0.01 0.01 0.01 0.01 0.01 0.02 0.02 0.02 0.04 0.04 0.02 0.03 0.06 0.11 0.14 0.08 0.06 0.07 0.08 0.08 0.06 0.05 0.06 0.09 0.18 0.14 0.09 0.05 0.03 0.03 0.04 0.04 0.03 0.02 0.03 0.02 0.02 0.02 0.02 0.02
0.01 0.01 0.01 0.01 0.01 0.01 0.01 0.01 0.01 0.02 0.02 0.03 0.04 0.04 0.04 0.04 0.04 0.06 0.07 0.05 0.06 0.08 0.08 0.07 0.06 0.05 0.04 0.04 0.08 0.12 0.09 0.07 0.06 0.07 0.06 0.04 0.03 0.03 0.03 0.02 0.03 0.03 0.03 0.02
0.01 0.01 0.02 0.04 0.04 0.04 0.02 0.01 0.01 0.01 0.02 0.03 0.04 0.04 0.05 0.05 0.04 0.04 0.04 0.03 0.05 0.07 0.09 0.09 0.07 0.07 0.07 0.05 0.04 0.04 0.06 0.06 0.08 0.10 0.07 0.06 0.04 0.03 0.04 0.05 0.04 0.04 0.03 0.02
0.02 0.02 0.04 0.08 0.05 0.05 0.03 0.03 0.03 0.03 0.04 0.05 0.07 0.05 0.05 0.04 0.04 0.03 0.03 0.03 0.03 0.03 0.05 0.10 0.13 0.11 0.08 0.07 0.07 0.06 0.05 0.05 0.07 0.11 0.11 0.09 0.08 0.08 0.07 0.07 0.06 0.05 0.04 0.03
0.04 0.04 0.05 0.06 0.04 0.03 0.04 0.06 0.07 0.07 0.07 0.06 0.05 0.04 0.04 0.03 0.03 0.02 0.03 0.02 0.03 0.03 0.03 0.05 0.11 0.16 0.11 0.07 0.07 0.07 0.08 0.07 0.07 0.12 0.15 0.10 0.09 0.10 0.09 0.06 0.05 0.06 0.05 0.05
0.03 0.05 0.08 0.08 0.05 0.03 0.04 0.08 0.07 0.07 0.06 0.05 0.04 0.04 0.04 0.03 0.02 0.02 0.02 0.02 0.03 0.05 0.07 0.05 0.06 0.08 0.08 0.05 0.05 0.05 0.06 0.07 0.07 0.08 0.08 0.09 0.10 0.10 0.10 0.08 0.06 0.06 0.05 0.05
0.03 0.05 0.06 0.05 0.04 0.04 0.05 0.06 0.06 0.06 0.05 0.05 0.07 0.07 0.06 0.03 0.02 0.02 0.02 0.03 0.04 0.08 0.11 0.08 0.06 0.07 0.09 0.08 0.08 0.10 0.09 0.07 0.07 0.08 0.09 0.09 0.10 0.12 0.11 0.10 0.07 0.06 0.04 0.04
0.02 0.04 0.05 0.03 0.03 0.04 0.05 0.04 0.04 0.04 0.05 0.05 0.07 0.08 0.08 0.06 0.05 0.06 0.04 0.04 0.05 0.07 0.10 0.09 0.06 0.04 0.03 0.05 0.05 0.08 0.12 0.10 0.06 0.07 0.08 0.09 0.10 0.09 0.09 0.08 0.08 0.08 0.08 0.07
0.03 0.03 0.03 0.02 0.03 0.03 0.04 0.05 0.05 0.08 0.08 0.06 0.04 0.04 0.05 0.06 0.06 0.07 0.09 0.06 0.05 0.05 0.08 0.11 0.08 0.05 0.03 0.02 0.03 0.04 0.06 0.08 0.07 0.07 0.07 0.07 0.08 0.08 0.08 0.07 0.07 0.08 0.08 0.07
0.03 0.03 0.03 0.02 0.02 0.02 0.03 0.04 0.04 0.04 0.04 0.04 0.03 0.03 0.03 0.05 0.06 0.06 0.09 0.12 0.09 0.07 0.07 0.11 0.09 0.07 0.04 0.02 0.03 0.03 0.04 0.06 0.07 0.08 0.09 0.08 0.08 0.10 0.10 0.09 0.08 0.07 0.07 0.06
0.02 0.02 0.02 0.02 0.02 0.02 0.02 0.03 0.04 0.04 0.08 0.08 0.06 0.03 0.03 0.03 0.04 0.04 0.04 0.07 0.10 0.10 0.09 0.06 0.07 0.07 0.05 0.04 0.04 0.05 0.06 0.08 0.11 0.13 0.12 0.13 0.11 0.09 0.10 0.08 0.08 0.08 0.08 0.07
0.02 0.02 0.02 0.01 0.01 0.01 0.01 0.02 0.01 0.02 0.05 0.06 0.05 0.05 0.04 0.02 0.03 0.03 0.03 0.04 0.03 0.05 0.09 0.07 0.06 0.07 0.06 0.04 0.04 0.05 0.07 0.08 0.11 0.16 0.17 0.16 0.13 0.09 0.08 0.08 0.09 0.09 0.09 0.09
0.03 0.02 0.02 0.01 0.01 0.01 0.02 0.02 0.01 0.00 0.01 0.02 0.04 0.06 0.07 0.03 0.03 0.04 0.03 0.04 0.02 0.03 0.05 0.06 0.05 0.06 0.05 0.04 0.04 0.04 0.08 0.08 0.07 0.12 0.15 0.16 0.12 0.09 0.07 0.06 0.07 0.08 0.08 0.08
0.02 0.03 0.03 0.03 0.03 0.03 0.04 0.03 0.01 0.01 0.01 0.01 0.03 0.07 0.06 0.03 0.03 0.03 0.02 0.03 0.02 0.03 0.04 0.05 0.08 0.08 0.06 0.04 0.04 0.04 0.07 0.08 0.08 0.10 0.11 0.13 0.13 0.10 0.08 0.07 0.07 0.06 0.06 0.06
0.02 0.03 0.05 0.04 0.05 0.09 0.08 0.06 0.03 0.02 0.02 0.03 0.06 0.09 0.05 0.04 0.03 0.03 0.03 0.03 0.03 0.03 0.04 0.05 0.08 0.09 0.07 0.06 0.05 0.06 0.08 0.09 0.10 0.11 0.09 0.09 0.10 0.09 0.09 0.09 0.09 0.09 0.08 0.08
0.02 0.02 0.03 0.04 0.05 0.07 0.08 0.07 0.05 0.04 0.04 0.04 0.06 0.06 0.04 0.03 0.03 0.03 0.03 0.03 0.03 0.03 0.04 0.05 0.06 0.08 0.08 0.07 0.06 0.06 0.08 0.13 0.13 0.08 0.06 0.06 0.07 0.09 0.09 0.09 0.09 0.08 0.07 0.07
0.02 0.01 0.02 0.04 0.05 0.05 0.04 0.03 0.04 0.04 0.03 0.04 0.05 0.04 0.03 0.02 0.04 0.04 0.03 0.02 0.03 0.03 0.04 0.05 0.07 0.07 0.05 0.05 0.05 0.06 0.07 0.12 0.14 0.08 0.05 0.05 0.05 0.07 0.07 0.06 0.06 0.05 0.05 0.05
0.01 0.01 0.01 0.03 0.04 0.04 0.04 0.02 0.01 0.02 0.03 0.03 0.04 0.04 0.04 0.04 0.03 0.03 0.03 0.02 0.02 0.02 0.03 0.04 0.06 0.06 0.05 0.06 0.05 0.08 0.08 0.10 0.12 0.08 0.06 0.06 0.06 0.06 0.07 0.06 0.06 0.06 0.05 0.04
0.02 0.01 0.01 0.01 0.01 0.02 0.03 0.02 0.01 0.01 0.01 0.02 0.02 0.02 0.02 0.04 0.05 0.04 0.02 0.02 0.02 0.01 0.01 0.03 0.04 0.05 0.05 0.07 0.07 0.08 0.08 0.08 0.09 0.08 0.08 0.06 0.06 0.05 0.06 0.07 0.06 0.05 0.04 0.04
0.02 0.02 0.01 0.01 0.01 0.01 0.02 0.02 0.01 0.01 0.00 0.01 0.01 0.02 0.02 0.02 0.03 0.04 0.04 0.03 0.03 0.02 0.02 0.03 0.03 0.03 0.04 0.05 0.06 0.07 0.08 0.05 0.06 0.06 0.06 0.06 0.06 0.05 0.04 0.05 0.05 0.04 0.03 0.03
0.02 0.02 0.02 0.02 0.02 0.02 0.02 0.01 0.01 0.01 0.01 0.01 0.02 0.02 0.02 0.02 0.03 0.03 0.04 0.04 0.03 0.03 0.02 0.03 0.02 0.03 0.04 0.04 0.05 0.06 0.08 0.05 0.04 0.05 0.05 0.05 0.05 0.05 0.04 0.03 0.03 0.03 0.02 0.02
0.02 0.02 0.02 0.02 0.01 0.01 0.01 0.01 0.01 0.01 0.02 0.02 0.02 0.02 0.02 0.02 0.02 0.03 0.03 0.03 0.03 0.04 0.03 0.02 0.02 0.03 0.03 0.03 0.03 0.05 0.05 0.04 0.04 0.05 0.05 0.05 0.05 0.05 0.04 0.03 0.03 0.02 0.02 0.02
0.02 0.01 0.01 0.01 0.01 0.01 0.01 0.01 0.01 0.01 0.02 0.02 0.01 0.02 0.02 0.02 0.02 0.02 0.02 0.03 0.03 0.06 0.06 0.04 0.03 0.04 0.03 0.02 0.03 0.04 0.04 0.04 0.03 0.04 0.04 0.04 0.04 0.05 0.05 0.04 0.03 0.03 0.03 0.03
0.02 0.01 0.01 0.01 0.01 0.01 0.02 0.02 0.02 0.03 0.03 0.02 0.02 0.02 0.02 0.02 0.02 0.02 0.03 0.04 0.05 0.05 0.04 0.04 0.05 0.04 0.03 0.02 0.02 0.03 0.03 0.03 0.03 0.03 0.04 0.04 0.04 0.04 0.05 0.05 0.04 0.03 0.02 0.02
0.02 0.02 0.02 0.02 0.02 0.02 0.02 0.03 0.03 0.03 0.03 0.03 0.03 0.02 0.02 0.02 0.02 0.02 0.03 0.04 0.04 0.04 0.03 0.03 0.03 0.04 0.04 0.03 0.02 0.02 0.02 0.03 0.03 0.04 0.05 0.04 0.04 0.04 0.07 0.08 0.08 0.06 0.04 0.02
0.02 0.02 0.03 0.02 0.02 0.03 0.03 0.03 0.03 0.03 0.03 0.02 0.02 0.02 0.02 0.02 0.03 0.03 0.03 0.03 0.03 0.03 0.03 0.02 0.02 0.03 0.04 0.04 0.04 0.03 0.02 0.03 0.06 0.06 0.05 0.04 0.04 0.04 0.06 0.11 0.11 0.08 0.05 0.03
0.02 0.02 0.03 0.03 0.03 0.03 0.03 0.04 0.04 0.03 0.03 0.03 0.02 0.02 0.02 0.02 0.02 0.02 0.02 0.03 0.02 0.02 0.02 0.02 0.02 0.03 0.03 0.04 0.04 0.03 0.02 0.02 0.03 0.04 0.03 0.03 0.03 0.03 0.05 0.07 0.09 0.07 0.06 0.05
MSLP
1018.26 1018.41 1018.62 1018.90 1019.27 1019.68 1020.12 1020.55 1020.93 1021.23 1021.45 1021.57 1021.62 1021.62 1021.60 1021.58 1021.57 1021.60 1021.63 1021.66 1021.65 1021.59 1021.44 1021.20 1020.85 1020.42 1019.91 1019.35 1018.76 1018.15 1017.55 1016.96 1016.38 1015.84 1015.32 1014.83 1014.39 1013.99 1013.65 1013.37 1013.15 1012.98 1012.85 1012.74
1018.52 1018.61 1018.71 1018.85 1019.04 1019.28 1019.57 1019.87 1020.19 1020.49 1020.75 1020.98 1021.17 1021.32 1021.43 1021.51 1021.57 1021.60 1021.59 1021.55 1021.45 1021.28 1021.06 1020.76 1020.40 1019.98 1019.52 1019.02 1018.50 1017.96 1017.41 1016.86 1016.30 1015.75 1015.21 1014.69 1014.21 1013.78 1013.41 1013.11 1012.88 1012.70 1012.57 1012.46
1018.82 1018.84 1018.85 1018.86 1018.91 1019.00 1019.16 1019.37 1019.62 1019.92 1020.23 1020.54 1020.83 1021.08 1021.29 1021.44 1021.52 1021.54 1021.48 1021.35 1021.16 1020.90 1020.60 1020.26 1019.89 1019.49 1019.08 1018.65 1018.21 1017.75 1017.27 1016.76 1016.23 1015.69 1015.14 1014.61 1014.11 1013.65 1013.26 1012.93 1012.67 1012.47 1012.33 1012.21
1019.15 1019.12 1019.04 1018.95 1018.89 1018.87 1018.92 1019.05 1019.26 1019.54 1019.87 1020.22 1020.57 1020.89 1021.15 1021.32 1021.41 1021.39 1021.28 1021.08 1020.81 1020.49 1020.13 1019.76 1019.39 1019.03 1018.67 1018.30 1017.94 1017.55 1017.13 1016.67 1016.18 1015.65 1015.11 1014.58 1014.06 1013.59 1013.18 1012.83 1012.55 1012.32 1012.15 1012.00
1019.44 1019.37 1019.24 1019.08 1018.94 1018.85 1018.83 1018.89 1019.05 1019.30 1019.62 1019.98 1020.34 1020.68 1020.95 1021.12 1021.19 1021.15 1021.00 1020.75 1020.44 1020.08 1019.70 1019.32 1018.97 1018.63 1018.32 1018.02 1017.71 1017.38 1017.01 1016.59 1016.13 1015.63 1015.11 1014.58 1014.07 1013.60 1013.18 1012.82 1012.52 1012.27 1012.06 1011.86
1019.60 1019.49 1019.33 1019.15 1018.97 1018.84 1018.77 1018.79 1018.91 1019.12 1019.41 1019.74 1020.08 1020.40 1020.65 1020.81 1020.86 1020.80 1020.63 1020.36 1020.04 1019.67 1019.31 1018.95 1018.63 1018.33 1018.06 1017.81 1017.54 1017.25 1016.92 1016.53 1016.10 1015.62 1015.12 1014.61 1014.12 1013.67 1013.26 1012.90 1012.60 1012.33 1012.08 1011.84
1019.50 1019.38 1019.23 1019.05 1018.87 1018.74 1018.66 1018.66 1018.75 1018.92 1019.16 1019.45 1019.75 1020.02 1020.24 1020.37 1020.40 1020.33 1020.17 1019.92 1019.61 1019.28 1018.95 1018.64 1018.36 1018.11 1017.88 1017.65 1017.42 1017.15 1016.84 1016.48 1016.06 1015.61 1015.14 1014.67 1014.21 1013.79 1013.41 1013.08 1012.78 1012.50 1012.24 1011.96
1019.08 1018.97 1018.84 1018.70 1018.57 1018.46 1018.41 1018.42 1018.49 1018.64 1018.84 1019.08 1019.32 1019.55 1019.72 1019.83 1019.85 1019.79 1019.64 1019.43 1019.18 1018.90 1018.63 1018.37 1018.13 1017.92 1017.72 1017.52 1017.30 1017.05 1016.75 1016.41 1016.02 1015.60 1015.17 1014.74 1014.33 1013.96 1013.63 1013.33 1013.05 1012.79 1012.52 1012.22
1018.34 1018.26 1018.18 1018.10 1018.03 1017.99 1017.99 1018.03 1018.12 1018.25 1018.43 1018.62 1018.82 1019.00 1019.14 1019.23 1019.25 1019.20 1019.09 1018.92 1018.72 1018.51 1018.30 1018.10 1017.91 1017.73 1017.56 1017.37 1017.17 1016.92 1016.64 1016.31 1015.95 1015.57 1015.18 1014.81 1014.46 1014.15 1013.87 1013.63 1013.39 1013.16 1012.90 1012.60
1017.36 1017.32 1017.30 1017.29 1017.31 1017.35 1017.42 1017.51 1017.63 1017.78 1017.94 1018.12 1018.28 1018.43 1018.55 1018.62 1018.64 1018.61 1018.53 1018.41 1018.27 1018.11 1017.95 1017.80 1017.64 1017.49 1017.34 1017.16 1016.96 1016.73 1016.46 1016.15 1015.83 1015.49 1015.16 1014.85 1014.57 1014.33 1014.12 1013.93 1013.75 1013.55 1013.32 1013.04
1016.30 1016.29 1016.32 1016.39 1016.49 1016.61 1016.76 1016.92 1017.08 1017.26 1017.43 1017.59 1017.74 1017.87 1017.97 1018.03 1018.06 1018.04 1017.99 1017.91 1017.80 1017.69 1017.56 1017.43 1017.30 1017.16 1017.01 1016.84 1016.65 1016.42 1016.17 1015.90 1015.62 1015.34 1015.07 1014.83 1014.62 1014.44 1014.30 1014.17 1014.04 1013.89 1013.70 1013.46
1015.31 1015.32 1015.39 1015.52 1015.68 1015.88 1016.09 1016.31 1016.52 1016.72 1016.91 1017.08 1017.23 1017.35 1017.44 1017.50 1017.53 1017.52 1017.48 1017.42 1017.33 1017.23 1017.11 1016.99 1016.85 1016.71 1016.56 1016.39 1016.20 1015.99 1015.77 1015.53 1015.30 1015.07 1014.87 1014.69 1014.55 1014.44 1014.36 1014.28 1014.21 1014.11 1013.97 1013.77
1014.54 1014.55 1014.64 1014.79 1014.99 1015.23 1015.48 1015.74 1015.99 1016.21 1016.42 1016.60 1016.75 1016.87 1016.96 1017.02 1017.04 1017.03 1016.99 1016.92 1016.83 1016.72 1016.59 1016.45 1016.30 1016.14 1015.97 1015.79 1015.61 1015.42 1015.22 1015.03 1014.85 1014.68 1014.53 1014.42 1014.33 1014.27 1014.24 1014.21 1014.18 1014.13 1014.03 1013.89
1014.07 1014.06 1014.13 1014.28 1014.48 1014.72 1014.98 1015.25 1015.51 1015.75 1015.96 1016.15 1016.30 1016.42 1016.51 1016.56 1016.57 1016.55 1016.50 1016.41 1016.29 1016.15 1015.99 1015.81 1015.63 1015.44 1015.26 1015.07 1014.89 1014.71 1014.55 1014.39 1014.26 1014.14 1014.04 1013.97 1013.93 1013.92 1013.91 1013.92 1013.92 1013.91 1013.86 1013.77
1013.90 1013.86 1013.89 1014.00 1014.17 1014.38 1014.61 1014.86 1015.10 1015.32 1015.53 1015.71 1015.85 1015.97 1016.05 1016.09 1016.09 1016.05 1015.98 1015.86 1015.71 1015.53 1015.33 1015.11 1014.89 1014.67 1014.46 1014.26 1014.07 1013.91 1013.77 1013.64 1013.54 1013.47 1013.41 1013.38 1013.36 1013.37 1013.39 1013.42 1013.44 1013.46 1013.45 1013.41
1014.00 1013.90 1013.88 1013.93 1014.03 1014.18 1014.36 1014.55 1014.75 1014.93 1015.11 1015.26 1015.39 1015.49 1015.55 1015.58 1015.57 1015.51 1015.41 1015.27 1015.08 1014.86 1014.62 1014.36 1014.11 1013.85 1013.62 1013.40 1013.22 1013.06 1012.93 1012.83 1012.75 1012.70 1012.66 1012.65 1012.65 1012.67 1012.70 1012.74 1012.78 1012.81 1012.84 1012.85
1014.26 1014.12 1014.03 1014.01 1014.04 1014.11 1014.20 1014.32 1014.45 1014.57 1014.69 1014.81 1014.90 1014.97 1015.02 1015.03 1015.00 1014.93 1014.81 1014.64 1014.43 1014.18 1013.91 1013.62 1013.33 1013.06 1012.80 1012.57 1012.38 1012.22 1012.10 1012.00 1011.94 1011.89 1011.87 1011.86 1011.87 1011.88 1011.91 1011.95 1012.00 1012.05 1012.10 1012.15
1014.59 1014.41 1014.27 1014.18 1014.13 1014.11 1014.12 1014.14 1014.19 1014.24 1014.29 1014.35 1014.40 1014.44 1014.45 1014.44 1014.40 1014.31 1014.17 1013.99 1013.77 1013.51 1013.22 1012.92 1012.62 1012.33 1012.07 1011.83 1011.63 1011.47 1011.34 1011.24 1011.17 1011.12 1011.09 1011.08 1011.07 1011.08 1011.11 1011.14 1011.19 1011.25 1011.32 1011.39
1014.89 1014.69 1014.52 1014.37 1014.25 1014.15 1014.07 1014.01 1013.96 1013.93 1013.91 1013.90 1013.90 1013.89 1013.87 1013.84 1013.78 1013.68 1013.54 1013.36 1013.14 1012.88 1012.60 1012.31 1012.01 1011.73 1011.46 1011.22 1011.02 1010.84 1010.70 1010.59 1010.51 1010.45 1010.40 1010.37 1010.36 1010.36 1010.37 1010.40 1010.45 1010.51 1010.59 1010.67
1015.10 1014.90 1014.71 1014.52 1014.35 1014.18 1014.03 1013.89 1013.76 1013.65 1013.55 1013.48 1013.41 1013.36 1013.31 1013.24 1013.17 1013.06 1012.93 1012.76 1012.56 1012.33 1012.07 1011.80 1011.53 1011.26 1011.00 1010.77 1010.57 1010.39 1010.24 1010.11 1010.01 1009.92 1009.86 1009.81 1009.77 1009.76 1009.76 1009.79 1009.83 1009.89 1009.96 1010.05
1015.20 1015.01 1014.81 1014.61 1014.40 1014.19 1013.98 1013.77 1013.57 1013.39 1013.23 1013.09 1012.97 1012.86 1012.77 1012.69 1012.59 1012.49 1012.37 1012.22 1012.04 1011.84 1011.63 1011.39 1011.16 1010.92 1010.69 1010.47 1010.28 1010.10 1009.94 1009.79 1009.67 1009.56 1009.48 1009.40 1009.35 1009.32 1009.31 1009.33 1009.36 1009.41 1009.48 1009.56
1015.16 1014.99 1014.81 1014.60 1014.37 1014.13 1013.88 1013.62 1013.37 1013.14 1012.92 1012.72 1012.56 1012.41 1012.29 1012.18 1012.07 1011.97 1011.86 1011.73 1011.59 1011.44 1011.26 1011.08 1010.89 1010.69 1010.50 1010.31 1010.12 1009.95 1009.79 1009.64 1009.50 1009.37 1009.26 1009.17 1009.10 1009.05 1009.03 1009.03 1009.05 1009.08 1009.13 1009.18
1015.01 1014.86 1014.69 1014.48 1014.25 1013.99 1013.72 1013.43 1013.15 1012.88 1012.62 1012.39 1012.18 1012.01 1011.86 1011.73 1011.62 1011.51 1011.42 1011.32 1011.21 1011.09 1010.97 1010.84 1010.69 1010.54 1010.39 1010.24 1010.08 1009.92 1009.76 1009.60 1009.45 1009.32 1009.19 1009.08 1008.99 1008.92 1008.88 1008.86 1008.85 1008.87 1008.89 1008.91
1014.76 1014.62 1014.46 1014.26 1014.02 1013.76 1013.48 1013.19 1012.89 1012.60 1012.32 1012.07 1011.85 1011.66 1011.49 1011.36 1011.24 1011.14 1011.06 1010.98 1010.90 1010.82 1010.74 1010.65 1010.56 1010.45 1010.34 1010.22 1010.09 1009.96 1009.81 1009.66 1009.51 1009.36 1009.22 1009.10 1008.99 1008.90 1008.83 1008.78 1008.75 1008.72 1008.70 1008.68
1014.43 1014.30 1014.14 1013.94 1013.71 1013.45 1013.17 1012.89 1012.59 1012.31 1012.04 1011.79 1011.57 1011.38 1011.22 1011.08 1010.97 1010.87 1010.80 1010.73 1010.67 1010.62 1010.57 1010.52 1010.47 1010.41 1010.34 1010.25 1010.15 1010.04 1009.92 1009.78 1009.63 1009.48 1009.33 1009.19 1009.06 1008.94 1008.84 1008.75 1008.68 1008.60 1008.53 1008.46
1014.08 1013.94 1013.76 1013.57 1013.34 1013.09 1012.83 1012.56 1012.29 1012.04 1011.79 1011.57 1011.38 1011.20 1011.06 1010.93 1010.83 1010.74 1010.67 1010.61 1010.57 1010.53 1010.50 1010.47 1010.44 1010.41 1010.37 1010.32 1010.25 1010.16 1010.06 1009.94 1009.80 1009.65 1009.49 1009.34 1009.18 1009.03 1008.88 1008.74 1008.61 1008.48 1008.35 1008.21
1013.73 1013.57 1013.39 1013.18 1012.96 1012.73 1012.50 1012.26 1012.04 1011.83 1011.63 1011.46 1011.31 1011.17 1011.05 1010.95 1010.86 1010.78 1010.71 1010.65 1010.60 1010.56 1010.54 1010.51 1010.50 1010.48 1010.46 1010.43 1010.38 1010.32 1010.24 1010.13 1010.00 1009.85 1009.69 1009.51 1009.32 1009.13 1008.93 1008.73 1008.54 1008.34 1008.14 1007.93
Thickness
5706 5715 5717 5714 5716 5718 5710 5702 5693 5697 5699 5704 5710 5713 5715 5719 5722 5722 5719 5719 5719 5718 5718 5718 5717 5717 5716 5715 5714 5713 5711 5709 5709 5709 5708 5706 5705 5704 5703 5701 5700 5698 5697 5695
5696 5707 5709 5705 5709 5710 5708 5706 5702 5699 5696 5706 5709 5709 5709 5710 5711 5709 5709 5711 5712 5712 5711 5709 5709 5708 5709 5708 5706 5705 5703 5702 5702 5702 5701 5699 5698 5696 5695 5694 5693 5691 5690 5689
5676 5691 5694 5681 5692 5698 5697 5699 5698 5688 5691 5700 5699 5699 5698 5701 5703 5702 5703 5704 5704 5704 5704 5703 5703 5703 5701 5700 5699 5698 5696 5695 5695 5694 5693 5692 5691 5689 5688 5686 5685 5684 5683 5682
5666 5672 5659 5674 5695 5697 5691 5690 5694 5692 5693 5694 5694 5695 5696 5697 5695 5694 5696 5696 5696 5695 5696 5695 5696 5695 5694 5693 5692 5691 5689 5688 5687 5686 5685 5684 5683 5682 5681 5680 5678 5677 5676 5675
5654 5653 5657 5675 5687 5687 5681 5674 5684 5683 5684 5686 5689 5687 5685 5690 5690 5688 5688 5688 5688 5688 5688 5688 5687 5687 5686 5684 5683 5682 5681 5680 5681 5681 5679 5677 5676 5675 5675 5673 5672 5671 5670 5668
5651 5647 5644 5663 5683 5691 5681 5661 5676 5677 5675 5676 5677 5665 5667 5679 5682 5682 5681 5681 5680 5681 5680 5679 5679 5679 5678 5676 5675 5674 5674 5674 5674 5673 5671 5670 5669 5668 5668 5667 5665 5664 5662 5660
5645 5640 5647 5668 5680 5682 5655 5653 5670 5671 5671 5671 5666 5664 5667 5672 5673 5674 5673 5673 5672 5672 5670 5670 5671 5670 5668 5667 5667 5668 5668 5667 5666 5665 5664 5663 5662 5661 5660 5659 5657 5655 5654 5653
5637 5632 5639 5667 5670 5660 5655 5664 5667 5666 5666 5665 5664 5665 5664 5665 5665 5665 5664 5665 5665 5663 5662 5662 5662 5662 5660 5658 5659 5661 5660 5657 5657 5657 5657 5657 5655 5654 5652 5650 5648 5646 5645 5644
5639 5639 5652 5662 5662 5662 5662 5659 5659 5658 5659 5660 5658 5656 5657 5656 5656 5656 5656 5657 5657 5656 5654 5653 5653 5653 5650 5651 5652 5651 5650 5649 5649 5649 5649 5648 5646 5645 5643 5642 5640 5638 5637 5635
5637 5643 5650 5654 5657 5658 5658 5656 5655 5655 5655 5653 5650 5650 5649 5648 5648 5647 5648 5648 5649 5648 5645 5644 5645 5644 5644 5646 5645 5644 5643 5642 5641 5640 5639 5638 5637 5636 5634 5633 5632 5631 5630 5628
5631 5638 5642 5647 5650 5652 5652 5652 5651 5649 5649 5647 5644 5642 5642 5640 5639 5639 5639 5639 5640 5639 5638 5637 5638 5638 5638 5638 5638 5636 5635 5634 5633 5632 5630 5628 5626 5625 5625 5625 5626 5625 5625 5623
5623 5632 5631 5635 5643 5647 5645 5645 5644 5642 5640 5641 5640 5636 5635 5632 5631 5630 5630 5631 5631 5631 5630 5630 5630 5630 5631 5631 5630 5628 5626 5625 5625 5623 5621 5619 5617 5615 5616 5616 5618 5619 5619 5618
5632 5635 5634 5636 5639 5641 5639 5639 5639 5637 5634 5632 5632 5630 5628 5625 5624 5624 5624 5624 5623 5623 5623 5622 5621 5622 5622 5622 5621 5620 5618 5617 5615 5614 5613 5611 5610 5608 5607 5607 5608 5609 5610 5610
5633 5632 5628 5629 5629 5633 5633 5633 5632 5631 5629 5628 5626 5624 5622 5619 5618 5617 5616 5616 5616 5615 5614 5614 5613 5613 5614 5614 5613 5611 5610 5609 5607 5606 5605 5604 5602 5602 5601 5600 5600 5600 5600 5601
5627 5627 5624 5624 5624 5624 5625 5623 5621 5619 5619 5619 5618 5616 5614 5612 5610 5609 5609 5609 5607 5606 5606 5606 5605 5605 5606 5605 5604 5603 5601 5600 5599 5598 5598 5597 5596 5595 5594 5594 5593 5593 5592 5592
5619 5620 5619 5617 5616 5615 5615 5614 5611 5610 5611 5610 5609 5607 5607 5606 5604 5603 5602 5601 5599 5598 5598 5598 5597 5597 5598 5598 5596 5595 5593 5594 5592 5590 5590 5590 5589 5588 5587 5587 5587 5587 5587 5586
5611 5609 5610 5609 5608 5608 5608 5607 5606 5605 5604 5603 5601 5601 5599 5598 5596 5595 5594 5594 5593 5592 5591 5591 5591 5591 5592 5591 5589 5588 5586 5586 5586 5585 5584 5583 5582 5582 5581 5581 5581 5581 5581 5581
5609 5608 5607 5605 5603 5602 5601 5602 5601 5599 5598 5598 5596 5593 5592 5590 5589 5588 5588 5588 5587 5586 5586 5585 5585 5585 5585 5584 5583 5582 5580 5580 5579 5579 5578 5577 5576 5576 5576 5575 5575 5575 5574 5574
5605 5604 5603 5602 5600 5598 5596 5595 5594 5593 5593 5592 5589 5587 5585 5584 5583 5583 5583 5582 5581 5579 5579 5580 5580 5579 5578 5578 5578 5577 5576 5575 5574 5573 5573 5572 5571 5570 5570 5570 5570 5569 5568 5567
5600 5599 5598 5597 5597 5594 5591 5590 5589 5588 5588 5587 5585 5581 5578 5578 5578 5578 5577 5576 5576 5575 5576 5575 5574 5574 5573 5572 5572 5572 5572 5571 5570 5569 5568 5567 5566 5565 5565 5565 5564 5563 5562 5561
5595 5594 5593 5591 5590 5589 5587 5586 5584 5583 5582 5581 5578 5576 5574 5574 5574 5573 5571 5570 5571 5571 5570 5570 5569 5568 5567 5567 5566 5566 5566 5565 5565 5564 5563 5563 5562 5562 5560 5560 5559 5558 5557 5556
5589 5588 5587 5586 5584 5583 5582 5581 5580 5579 5577 5575 5574 5572 5570 5569 5568 5567 5566 5565 5566 5566 5565 5564 5563 5563 5562 5562 5562 5561 5561 5560 5560 5559 5558 5557 5556 5555 5554 5553 5552 5552 5551 5550
5583 5582 5582 5581 5580 5578 5578 5576 5575 5574 5572 5571 5570 5568 5566 5565 5563 5561 5560 5561 5562 5562 5560 5559 5558 5558 5558 5557 5557 5556 5556 5555 5554 5553 5553 5551 5550 5549 5548 5547 5547 5546 5545 5544
5578 5577 5577 5577 5576 5574 5571 5570 5570 5569 5568 5567 5566 5565 5563 5560 5559 5558 5558 5558 5557 5556 5555 5554 5554 5553 5553 5552 5552 5551 5550 5550 5549 5548 5547 5546 5545 5544 5543 5543 5542 5542 5541 5539
5574 5573 5573 5572 5570 5568 5567 5566 5565 5564 5563 5561 5561 5560 5558 5557 5555 5555 5555 5554 5553 5551 5550 5550 5549 5548 5547 5547 5547 5546 5545 5545 5544 5543 5542 5541 5541 5539 5538 5538 5537 5537 5535 5534
5571 5569 5568 5568 5567 5566 5564 5562 5560 5559 5557 5556 5554 5554 5553 5552 5551 5551 5550 5549 5548 5547 5546 5545 5544 5543 5542 5541 5541 5540 5540 5539 5539 5538 5538 5537 5536 5535 5534 5533 5532 5531 5530 5528
5567 5566 5564 5563 5562 5562 5560 5558 5556 5554 5553 5551 5550 5549 5548 5547 5546 5545 5544 5543 5542 5541 5540 5540 5539 5538 5537 5536 5536 5536 5535 5534 5534 5533 5532 5532 5531 5530 5529 5528 5527 5526 5524 5523